This is the latest recevied weather packets stored in our database for station/object KF8LO-1. If no packets are shown the sender has not sent any weather packets the latest 1 day(s).
| Time | Temp. | Humidity | Pressure | Rain* | Wind** | Luminosity | Snow |
|---|---|---|---|---|---|---|---|
| 1778034422 | 17.78° C | 37% | 0 hPa | 0 mm | 4.02 m/s, 265° | - | - |
| 1778034122 | 17.78° C | 38% | 0 hPa | 0 mm | 2.68 m/s, 267° | - | - |
| 1778033823 | 17.78° C | 38% | 0 hPa | 0 mm | 1.34 m/s, 216° | - | - |
| 1778033522 | 17.78° C | 37% | 0 hPa | 0 mm | 4.02 m/s, 292° | - | - |
| 1778033222 | 17.78° C | 38% | 0 hPa | 0 mm | 2.24 m/s, 271° | - | - |
| 1778032923 | 17.78° C | 38% | 0 hPa | 0 mm | 2.68 m/s, 246° | - | - |
| 1778032622 | 17.78° C | 38% | 0 hPa | 0 mm | 0.89 m/s, 278° | - | - |
| 1778032323 | 17.78° C | 39% | 0 hPa | 0 mm | 0.45 m/s, 336° | - | - |
| 1778032023 | 17.78° C | 39% | 0 hPa | 0 mm | 2.24 m/s, 292° | - | - |
| 1778031723 | 17.78° C | 40% | 0 hPa | 0 mm | 0.45 m/s, 5° | - | - |
| 1778031423 | 17.78° C | 41% | 0 hPa | 0 mm | 0.89 m/s, 326° | - | - |
| 1778031123 | 17.78° C | 41% | 0 hPa | 0 mm | 1.79 m/s, 320° | - | - |
| 1778030823 | 17.78° C | 42% | 0 hPa | 0 mm | 1.34 m/s, 322° | - | - |
| 1778030523 | 17.78° C | 42% | 0 hPa | 0 mm | 1.34 m/s, 300° | - | - |
| 1778030223 | 17.78° C | 42% | 0 hPa | 0 mm | 2.24 m/s, 262° | - | - |
| 1778029923 | 17.78° C | 42% | 0 hPa | 0 mm | 0.45 m/s, 208° | - | - |
| 1778029623 | 17.78° C | 42% | 0 hPa | 0 mm | 2.24 m/s, 279° | - | - |
| 1778029323 | 17.78° C | 42% | 0 hPa | 0 mm | 4.02 m/s, 291° | - | - |
| 1778029023 | 17.78° C | 42% | 0 hPa | 0 mm | 1.34 m/s, 309° | - | - |
| 1778028723 | 17.78° C | 42% | 0 hPa | 0 mm | 2.24 m/s, 291° | - | - |
| 1778028423 | 17.78° C | 42% | 0 hPa | 0 mm | 1.34 m/s, 271° | - | - |
| 1778028123 | 17.78° C | 42% | 0 hPa | 0 mm | 1.79 m/s, 291° | - | - |
| 1778027823 | 18.33° C | 42% | 0 hPa | 0 mm | 0.89 m/s, 279° | - | - |
| 1778027523 | 18.33° C | 41% | 0 hPa | 0 mm | 2.68 m/s, 299° | - | - |
| 1778027223 | 18.33° C | 41% | 0 hPa | 0 mm | 2.68 m/s, 278° | - | - |
* Rain latest hour (hover to see other rain measurements)
** Current wind speed in m/s (hover to see current wind gust speed)